Voltar ao catálogo

STARLINK-30256

AtivoComunicaçõesVLEO
NORAD 57522·PAYLOAD·🇺🇸 United States

Lançado Aug 8, 2023 de Vandenberg Space Force Base

Loading…

Próximas Passagens (próximas 24 horas)

TLE

AtualizadoSource: CelesTrak SupGP

Época: Sep 14, 2026, 20:56 UTC

1 57522C 23115B   26257.87270833 -.00005956  00000+0 -21564-3 0  2577
2 57522  43.0033  13.5192 0001632 266.4626 342.2534 15.27595006    15

Acompanhe STARLINK-30256 em tempo real com AllMySat

Download on the App Store